Terminal Aerodrome Forecast
Issued by NWS

Home | Current Version | Previous Version | Text Only | Print | Product List | Glossary On
Versions: 1 2 3 4 5 6 7 8 9 10 11 12 13 14 15 16 17 18 19 20 21 22
935
FTUS43 KPAH 251559 AAA
TAFCGI
TAF AMD
KCGI 251559Z 2516/2612 17011G19KT P6SM VCSH FEW012 BKN020
     FM251900 17013G21KT P6SM BKN040
      TEMPO 2520/2524 3SM -TSRA BR OVC030CB
     FM260000 19006KT P6SM BKN050=

USA.gov is the U.S. government's official web portal to all federal, state and local government web resources and services.